Location: Newark
(27.9675°N, 86.8869°E)
Time: 17:24:49
(UTC+00:00)

Altair - Pass Details

Date: 26 October 2019
Orbit: 1502 x 1682 km, 47.2° (Epoch: 17 November)

Event Time Altitude Azimuth Distance (km) Brightness Sun altitude
Rises 12:21:34 0° 298° (WNW) 4,892 11.1 -11.3°
Reaches altitude 10° 12:25:20 10° 287° (WNW) 3,920 10.8 -12.1°
Maximum altitude 12:33:16 27° 234° (SW) 2,813 9.6 -13.8°
Drops below altitude 10° 12:41:15 10° 181° (S) 3,928 9.7 -15.6°
Sets 12:45:04 0° 170° (S) 4,903 10.1 -16.4°
